loading
|
Showing default

SPACEMOBILE-005, 61046

Orbit data source: Space-Track

SPACEMOBILE-005, 61046 is a payload satellite owned by AST & Science (US) in LEO that was launched on Thu, 12 Sep 2024 UTC via an FALCON 9 launch vehicle from the Air Force Eastern Test Range (AFETR). Payloads include a variety of satellites, spacecraft, and rockets equipped with specific instruments for various scientific and technological missions. These include communications satellites like Starlink; space stations such as the ISS; scientific satellites like the Hubble; Earth observation satellites from companies like Planet Labs, Umbra, and HawkEye 360; GPS; miniature CubeSats for education and research; and military/defense satellites.

Loading next visibility...
Next conjunction unknown
Loading greatness...
SPACEMOBILE-005 details
Identifier
61046, 2024-163B
Orbit
LEO
Last TLE update12 hours ago
Origin
Flag of USAST & Science (US)
ManufacturerAST & Science
MissionOperational spacecraft
Bus & MotorBW3, Unknown motor
Mass1,500 kg wet, 1,500 kg dry
Launch date (UTC)
2024-09-12 (1 month ago)
Launch vehicle
FALCON 9
Launch site
Air Force Eastern Test Range (AFETR)
Object type
Payload
Rocket body
Debris
Shape & HBRUnknown
Radar Cross SectionLarge (>1 m²)

Expand to show TLE details & history

TLE from 12 hours ago
0 SPACEMOBILE-005
1 61046U 24163B   24288.11269488  .00003577  00000-0  19120-3 0  9994
2 61046  52.9756 236.6598 0014338  61.6507 298.5930 15.17560391  4813
Epoch: 2024-10-14T02:42Z
Definitive object data (Epoch: 2024-10-14T02:42:16.837Z)
Latitude-0.00002°
Longitude172.94513°
Altitude509.374 km
Speed7.613 km/s
True Right ascension15h 46m 38s
True Declination0° 00' 00"
Sunlit
Object was in daylight at TLE epoch
Predictive object data (real-time)
Latitude32.93849°
Longitude-38.35457°
Altitude512.66 km
Speed7.613 km/s
Apparent Right ascension23h 32m 29s
Apparent Declination-2° 15' 49"
Sunlit
Object is in full shadow
Predictive observer data (real-time)
Local Sidereal Time08:56:11
Azimuth306.583° NW
Elevation-38.339°
Doppler factor1
Orbital elements
Apogee523.382 km
Perigee503.62 km
Semi-major axis6,891.638 km
Eccentricity0.0014338
Inclination52.9756°
RAAN236.6598°
Arg. of periapsis61.6507°
True anomaly298.44861°
Mean anomaly298.593°
Eccentric anomaly298.52082°
Mean motion3.79367 °/min
BSTAR0.0001912
Period94.89 mins
No data available
No data available

SPACEMOBILE-005 Visibility forecast

Observer location: 39.9160978°, -105.1181434

Span
Click to sort rows by Start time (UTC) header in descending order
Start Az.
Max El. time (UTC)
Max El. Az.
Max El.
End time (UTC)
End Az.
6 mins2024-10-14 23:26:10.373Z227.524° WSW2024-10-14 23:29:10.373Z85.239° E44.83°2024-10-14 23:32:10.373Z51.269° ENE
6 mins2024-10-15 06:05:10.373Z313.254° NW2024-10-15 06:07:10.373Z337.32° NNW43.511°2024-10-15 06:11:10.373Z127.111° SE